This is the latest recevied weather packets stored in our database for station/object F4ELU-13. If no packets are shown the sender has not sent any weather packets the latest 10 day(s).
| Time | Temp. | Humidity | Pressure | Rain* | Wind** | Luminosity | Snow |
|---|---|---|---|---|---|---|---|
| 1777873503 | 10.56° C | 99% | 1012.8 hPa | 0.25 mm | - | - | - |
| 1777872963 | 10.56° C | 99% | 1013 hPa | 0.25 mm | - | - | - |
| 1777872423 | 10° C | 99% | 1012.9 hPa | 0.25 mm | - | - | - |
| 1777871883 | 10° C | 99% | 1012.8 hPa | 0.25 mm | - | - | - |
| 1777871343 | 10° C | 99% | 1012.8 hPa | 0.51 mm | - | - | - |
| 1777870803 | 10° C | 99% | 1012.9 hPa | 1.02 mm | - | - | - |
| 1777870443 | 10° C | 99% | 1012.9 hPa | 1.52 mm | - | - | - |
| 1777869903 | 10° C | 99% | 1012.9 hPa | 2.03 mm | - | - | - |
| 1777869363 | 10° C | 99% | 1013 hPa | 2.79 mm | - | - | - |
| 1777868823 | 10° C | 99% | 1013 hPa | 3.3 mm | - | - | - |
| 1777868283 | 10° C | 99% | 1013.1 hPa | 4.32 mm | - | - | - |
| 1777867743 | 10° C | 99% | 1013.1 hPa | 4.32 mm | - | - | - |
| 1777867204 | 10° C | 99% | 1013.1 hPa | 4.32 mm | - | - | - |
| 1777866843 | 10° C | 99% | 1013.1 hPa | 3.56 mm | - | - | - |
| 1777866303 | 10° C | 99% | 1013.3 hPa | 3.05 mm | - | - | - |
| 1777865763 | 10.56° C | 99% | 1013.3 hPa | 2.03 mm | - | - | - |
| 1777865223 | 10.56° C | 99% | 1013.5 hPa | 1.52 mm | - | - | - |
| 1777864683 | 10.56° C | 98% | 1013.4 hPa | 1.02 mm | - | - | - |
| 1777864143 | 10.56° C | 97% | 1013.5 hPa | 0.51 mm | - | - | - |
| 1777863603 | 10.56° C | 97% | 1013.3 hPa | 0.51 mm | - | - | - |
| 1777863243 | 10.56° C | 96% | 1013.4 hPa | 1.02 mm | - | - | - |
| 1777862704 | 10.56° C | 97% | 1013.3 hPa | 1.52 mm | - | - | - |
| 1777862163 | 10.56° C | 98% | 1013.2 hPa | 1.78 mm | - | - | - |
| 1777861623 | 10.56° C | 97% | 1013.4 hPa | 1.78 mm | - | - | - |
| 1777861083 | 10.56° C | 96% | 1013.2 hPa | 1.52 mm | - | - | - |
* Rain latest hour (hover to see other rain measurements)
** Current wind speed in m/s (hover to see current wind gust speed)